UAL233 KLAX-KSFO

Flight info

Callsign UAL233
Flight time 0h 52m
Altitude 32000
Route SUMMR2 STOKD SERFR SERFR4
Aircraft A320/M-SDE3FGHIRWY/LB1

Departure

Time 2026-05-06 01:33
Airport Los Angeles International Airport (KLAX)

Arrival

Time 2026-05-06 02:25
Airport San Francisco International Airport (KSFO)
Time Latitude Longitude Altitude Speed Heading
2026-05-06 00:53 33.94228 -118.39914 126 ft 0 kts 263°
2026-05-06 01:14 33.94231 -118.39888 124 ft 4 kts 257°
2026-05-06 01:14 33.94241 -118.39860 122 ft 4 kts 219°
2026-05-06 01:14 33.94259 -118.39851 120 ft 0 kts 173°
2026-05-06 01:25 33.94254 -118.39850 122 ft 2 kts 173°
2026-05-06 01:25 33.94233 -118.39847 123 ft 4 kts 173°
2026-05-06 01:25 33.94195 -118.39842 122 ft 7 kts 173°
2026-05-06 01:25 33.94141 -118.39834 123 ft 9 kts 172°
2026-05-06 01:26 33.94070 -118.39826 124 ft 11 kts 179°
2026-05-06 01:26 33.93982 -118.39818 123 ft 14 kts 172°
2026-05-06 01:26 33.93911 -118.39742 125 ft 16 kts 102°
2026-05-06 01:26 33.93923 -118.39601 126 ft 18 kts 81°
2026-05-06 01:27 33.93936 -118.39443 124 ft 20 kts 84°
2026-05-06 01:27 33.93954 -118.39270 124 ft 22 kts 83°
2026-05-06 01:27 33.93973 -118.39083 126 ft 23 kts 83°
2026-05-06 01:27 33.93992 -118.38883 126 ft 25 kts 83°
2026-05-06 01:28 33.94015 -118.38664 124 ft 27 kts 83°
2026-05-06 01:28 33.94038 -118.38440 124 ft 21 kts 83°
2026-05-06 01:28 33.94054 -118.38274 124 ft 14 kts 83°
2026-05-06 01:28 33.94066 -118.38164 126 ft 9 kts 83°
2026-05-06 01:29 33.94067 -118.38152 126 ft 0 kts 83°
2026-05-06 01:30 33.94068 -118.38144 126 ft 2 kts 83°
2026-05-06 01:31 33.94066 -118.38113 126 ft 5 kts 99°
2026-05-06 01:31 33.94050 -118.38064 121 ft 7 kts 116°
2026-05-06 01:31 33.94009 -118.38024 122 ft 9 kts 180°
2026-05-06 01:31 33.93980 -118.38072 126 ft 0 kts 263°
2026-05-06 01:32 33.93972 -118.38154 126 ft 36 kts 263°
2026-05-06 01:32 33.93913 -118.38731 126 ft 100 kts 263°
2026-05-06 01:32 33.93803 -118.39772 127 ft 148 kts 263°
2026-05-06 01:32 33.93673 -118.41024 683 ft 150 kts 262°
2026-05-06 01:33 33.93542 -118.42266 1428 ft 148 kts 262°
2026-05-06 01:33 33.93404 -118.43507 2044 ft 157 kts 262°
2026-05-06 01:33 33.93258 -118.44905 2366 ft 179 kts 264°
2026-05-06 01:33 33.93108 -118.46502 2603 ft 206 kts 264°
2026-05-06 01:34 33.92956 -118.48325 3001 ft 230 kts 265°
2026-05-06 01:34 33.92808 -118.50329 3574 ft 249 kts 265°
2026-05-06 01:34 33.92651 -118.52416 4367 ft 256 kts 265°
2026-05-06 01:34 33.92480 -118.54573 5263 ft 261 kts 265°
2026-05-06 01:35 33.92298 -118.56769 6124 ft 266 kts 265°
2026-05-06 01:35 33.92112 -118.59003 6988 ft 271 kts 266°
2026-05-06 01:35 33.91924 -118.61275 7837 ft 275 kts 266°
2026-05-06 01:35 33.91774 -118.63601 8615 ft 280 kts 272°
2026-05-06 01:36 33.91809 -118.65955 9464 ft 283 kts 273°
2026-05-06 01:36 33.91802 -118.68347 10237 ft 289 kts 272°
2026-05-06 01:36 33.91779 -118.70853 10557 ft 310 kts 272°
2026-05-06 01:36 33.91749 -118.73529 10887 ft 328 kts 271°
2026-05-06 01:37 33.91718 -118.76293 11555 ft 332 kts 272°
2026-05-06 01:37 33.91699 -118.79089 12239 ft 337 kts 272°
2026-05-06 01:37 33.91690 -118.81923 12922 ft 341 kts 272°
2026-05-06 01:37 33.91699 -118.84801 13609 ft 345 kts 273°
2026-05-06 01:38 33.91765 -118.87710 14243 ft 350 kts 274°
2026-05-06 01:38 33.91861 -118.90649 14869 ft 353 kts 275°
2026-05-06 01:38 33.91969 -118.93615 15510 ft 356 kts 275°
2026-05-06 01:38 33.92077 -118.96601 16145 ft 359 kts 275°
2026-05-06 01:39 33.92288 -118.99596 16760 ft 360 kts 282°
2026-05-06 01:39 33.92684 -119.01575 17183 ft 360 kts 290°
2026-05-06 01:39 33.93639 -119.04312 17800 ft 360 kts 301°
2026-05-06 01:39 33.94942 -119.06888 18417 ft 362 kts 304°
2026-05-06 01:40 33.96286 -119.09478 18976 ft 365 kts 304°
2026-05-06 01:40 33.97633 -119.12084 19556 ft 368 kts 304°
2026-05-06 01:40 33.98987 -119.14715 20137 ft 371 kts 304°
2026-05-06 01:40 34.00417 -119.17310 20711 ft 372 kts 311°
2026-05-06 01:41 34.02191 -119.19572 21257 ft 371 kts 322°
2026-05-06 01:41 34.04256 -119.21436 21807 ft 372 kts 327°
2026-05-06 01:41 34.06373 -119.23242 22357 ft 374 kts 327°
2026-05-06 01:41 34.08503 -119.25069 22927 ft 377 kts 327°
2026-05-06 01:42 34.10645 -119.26911 23476 ft 379 kts 328°
2026-05-06 01:42 34.13004 -119.28943 23992 ft 382 kts 328°
2026-05-06 01:42 34.15179 -119.30817 24423 ft 385 kts 328°
2026-05-06 01:42 34.17366 -119.32703 24855 ft 388 kts 328°
2026-05-06 01:43 34.19573 -119.34607 25271 ft 391 kts 328°
2026-05-06 01:43 34.21794 -119.36522 25672 ft 394 kts 329°
2026-05-06 01:43 34.24035 -119.38454 26074 ft 397 kts 329°
2026-05-06 01:43 34.26291 -119.40403 26463 ft 400 kts 329°
2026-05-06 01:44 34.28563 -119.42368 26846 ft 403 kts 330°
2026-05-06 01:44 34.30852 -119.44351 27216 ft 406 kts 330°
2026-05-06 01:44 34.33156 -119.46349 27583 ft 409 kts 330°
2026-05-06 01:44 34.35478 -119.48363 27939 ft 412 kts 331°
2026-05-06 01:45 34.37817 -119.50389 28292 ft 415 kts 331°
2026-05-06 01:45 34.40140 -119.52405 28648 ft 418 kts 330°
2026-05-06 01:45 34.42384 -119.54780 29008 ft 429 kts 322°
2026-05-06 01:45 34.44492 -119.57368 29353 ft 432 kts 322°
2026-05-06 01:46 34.46605 -119.59973 29650 ft 435 kts 322°
2026-05-06 01:46 34.48706 -119.62566 30011 ft 438 kts 322°
2026-05-06 01:46 34.50848 -119.65208 30337 ft 441 kts 322°
2026-05-06 01:46 34.53007 -119.67867 30710 ft 442 kts 322°
2026-05-06 01:47 34.55169 -119.70530 31045 ft 443 kts 322°
2026-05-06 01:47 34.57336 -119.73199 31365 ft 445 kts 322°
2026-05-06 01:47 34.59504 -119.75872 31727 ft 444 kts 322°
2026-05-06 01:47 34.61666 -119.78543 31951 ft 443 kts 322°
2026-05-06 01:48 34.63798 -119.81186 31992 ft 430 kts 322°
2026-05-06 01:48 34.65855 -119.83753 32029 ft 420 kts 322°
2026-05-06 01:48 34.69915 -119.88799 32032 ft 416 kts 322°
2026-05-06 01:49 34.73967 -119.93813 32035 ft 416 kts 323°
2026-05-06 01:49 34.78030 -119.98839 32040 ft 417 kts 323°
2026-05-06 01:50 34.82094 -120.03892 32040 ft 418 kts 323°
2026-05-06 01:50 34.86190 -120.08992 32042 ft 429 kts 322°
2026-05-06 01:51 34.88307 -120.11623 32043 ft 440 kts 322°
2026-05-06 01:51 34.90470 -120.14314 32054 ft 449 kts 322°
2026-05-06 01:51 34.94914 -120.19867 32060 ft 463 kts 322°
2026-05-06 01:52 34.99421 -120.25529 32063 ft 466 kts 322°
2026-05-06 01:52 35.03931 -120.31198 32067 ft 466 kts 322°
2026-05-06 01:53 35.08453 -120.36878 32063 ft 466 kts 322°
2026-05-06 01:53 35.13103 -120.42363 32052 ft 463 kts 326°
2026-05-06 01:54 35.17898 -120.47605 32040 ft 463 kts 326°
2026-05-06 01:54 35.22700 -120.52853 32033 ft 464 kts 326°
2026-05-06 01:55 35.27463 -120.58180 32027 ft 463 kts 325°
2026-05-06 01:55 35.32166 -120.63511 32032 ft 465 kts 325°
2026-05-06 01:56 35.36923 -120.68904 32028 ft 465 kts 326°
2026-05-06 01:56 35.41689 -120.74272 32036 ft 466 kts 325°
2026-05-06 01:57 35.46464 -120.79669 32054 ft 467 kts 325°
2026-05-06 01:57 35.51445 -120.84685 32053 ft 460 kts 331°
2026-05-06 01:58 35.56553 -120.89417 32052 ft 460 kts 331°
2026-05-06 01:58 35.61668 -120.94167 32052 ft 460 kts 330°
2026-05-06 01:59 35.66770 -120.98921 32063 ft 460 kts 330°
2026-05-06 01:59 35.71869 -121.03672 32063 ft 460 kts 330°
2026-05-06 02:00 35.76969 -121.08435 32063 ft 459 kts 330°
2026-05-06 02:00 35.82059 -121.13194 32063 ft 459 kts 330°
2026-05-06 02:01 35.87107 -121.17913 32066 ft 458 kts 330°
2026-05-06 02:01 35.92193 -121.22679 32073 ft 458 kts 330°
2026-05-06 02:02 35.97259 -121.27441 32076 ft 457 kts 330°
2026-05-06 02:02 36.02322 -121.32196 32080 ft 457 kts 330°
2026-05-06 02:03 36.07402 -121.36906 32075 ft 452 kts 335°
2026-05-06 02:03 36.12712 -121.41042 31857 ft 451 kts 335°
2026-05-06 02:04 36.15374 -121.43118 31605 ft 452 kts 335°
2026-05-06 02:04 36.18037 -121.45197 31343 ft 452 kts 335°
2026-05-06 02:04 36.20701 -121.47276 31101 ft 452 kts 335°
2026-05-06 02:04 36.23363 -121.49358 30860 ft 453 kts 335°
2026-05-06 02:05 36.25995 -121.51420 30378 ft 452 kts 334°
2026-05-06 02:05 36.28667 -121.53514 29082 ft 457 kts 334°
2026-05-06 02:05 36.31359 -121.55621 27993 ft 458 kts 334°
2026-05-06 02:05 36.34054 -121.57735 26816 ft 460 kts 333°
2026-05-06 02:06 36.36763 -121.59859 25655 ft 462 kts 333°
2026-05-06 02:06 36.39433 -121.61962 25172 ft 440 kts 333°
2026-05-06 02:06 36.41922 -121.63941 24916 ft 411 kts 333°
2026-05-06 02:06 36.44277 -121.65813 24470 ft 393 kts 333°
2026-05-06 02:07 36.46573 -121.67626 24241 ft 390 kts 333°
2026-05-06 02:07 36.48864 -121.69423 24017 ft 388 kts 333°
2026-05-06 02:07 36.51142 -121.71208 23788 ft 387 kts 333°
2026-05-06 02:07 36.53415 -121.72992 23533 ft 386 kts 333°
2026-05-06 02:08 36.55683 -121.74771 23247 ft 384 kts 333°
2026-05-06 02:08 36.57937 -121.76547 22917 ft 383 kts 333°
2026-05-06 02:08 36.60186 -121.78325 22392 ft 382 kts 333°
2026-05-06 02:08 36.62429 -121.80102 21868 ft 382 kts 332°
2026-05-06 02:09 36.64653 -121.81869 21444 ft 378 kts 332°
2026-05-06 02:09 36.66867 -121.83628 20977 ft 375 kts 332°
2026-05-06 02:09 36.69053 -121.85368 20555 ft 371 kts 332°
2026-05-06 02:09 36.71224 -121.87096 20081 ft 369 kts 332°
2026-05-06 02:10 36.72657 -121.88223 19775 ft 366 kts 334°
2026-05-06 02:10 36.75732 -121.89859 19177 ft 355 kts 348°
2026-05-06 02:10 36.77316 -121.90309 18864 ft 352 kts 351°
2026-05-06 02:10 36.79703 -121.90964 18386 ft 350 kts 350°
2026-05-06 02:11 36.82075 -121.91625 17841 ft 348 kts 350°
2026-05-06 02:11 36.84426 -121.92281 17309 ft 345 kts 350°
2026-05-06 02:11 36.86763 -121.92934 16788 ft 343 kts 350°
2026-05-06 02:11 36.89078 -121.93584 16276 ft 340 kts 349°
2026-05-06 02:12 36.91384 -121.94233 15771 ft 338 kts 349°
2026-05-06 02:12 36.94413 -121.95083 15107 ft 336 kts 349°
2026-05-06 02:12 36.95946 -121.95545 14783 ft 335 kts 348°
2026-05-06 02:12 36.98181 -121.96338 14305 ft 333 kts 346°
2026-05-06 02:13 37.00389 -121.97207 13811 ft 332 kts 345°
2026-05-06 02:13 37.02584 -121.98103 13286 ft 330 kts 344°
2026-05-06 02:13 37.04731 -121.98982 12775 ft 328 kts 344°
2026-05-06 02:13 37.06896 -121.99858 12298 ft 326 kts 345°
2026-05-06 02:14 37.09076 -122.00729 11811 ft 323 kts 345°
2026-05-06 02:14 37.11211 -122.01569 11396 ft 319 kts 345°
2026-05-06 02:14 37.13259 -122.02373 11232 ft 297 kts 345°
2026-05-06 02:14 37.15188 -122.03130 10792 ft 286 kts 345°
2026-05-06 02:15 37.17072 -122.03864 10193 ft 282 kts 345°
2026-05-06 02:15 37.18924 -122.04587 9911 ft 274 kts 345°
2026-05-06 02:15 37.20722 -122.05288 9662 ft 268 kts 345°
2026-05-06 02:15 37.22483 -122.05975 9289 ft 268 kts 345°
2026-05-06 02:16 37.24262 -122.06669 8975 ft 268 kts 345°
2026-05-06 02:16 37.26038 -122.07365 8649 ft 267 kts 345°
2026-05-06 02:16 37.27806 -122.08057 8350 ft 266 kts 345°
2026-05-06 02:16 37.29588 -122.08756 7967 ft 263 kts 344°
2026-05-06 02:17 37.31306 -122.09431 7435 ft 264 kts 344°
2026-05-06 02:17 37.33064 -122.10123 7033 ft 267 kts 343°
2026-05-06 02:17 37.34857 -122.10833 6571 ft 272 kts 343°
2026-05-06 02:17 37.36686 -122.11559 6161 ft 269 kts 343°
2026-05-06 02:18 37.38438 -122.12240 5816 ft 257 kts 344°
2026-05-06 02:18 37.40119 -122.12835 5510 ft 245 kts 345°
2026-05-06 02:18 37.41711 -122.13374 5230 ft 234 kts 346°
2026-05-06 02:18 37.43269 -122.13895 4956 ft 224 kts 345°
2026-05-06 02:19 37.44750 -122.14391 4671 ft 215 kts 345°
2026-05-06 02:19 37.46142 -122.14861 4418 ft 204 kts 344°
2026-05-06 02:19 37.47494 -122.15318 4193 ft 200 kts 343°
2026-05-06 02:19 37.48832 -122.15772 3921 ft 198 kts 343°
2026-05-06 02:20 37.51422 -122.16656 3453 ft 187 kts 342°
2026-05-06 02:20 37.52637 -122.17194 3225 ft 184 kts 328°
2026-05-06 02:20 37.53631 -122.18184 3022 ft 181 kts 308°
2026-05-06 02:21 37.54281 -122.19472 2816 ft 171 kts 297°
2026-05-06 02:21 37.54837 -122.20791 2597 ft 169 kts 296°
2026-05-06 02:21 37.55386 -122.22091 2391 ft 167 kts 296°
2026-05-06 02:21 37.55927 -122.23373 2169 ft 162 kts 296°
2026-05-06 02:22 37.56433 -122.24573 1986 ft 148 kts 296°
2026-05-06 02:22 37.56907 -122.25696 1789 ft 141 kts 296°
2026-05-06 02:22 37.57359 -122.26771 1607 ft 137 kts 296°
2026-05-06 02:22 37.57797 -122.27809 1439 ft 131 kts 296°
2026-05-06 02:23 37.58214 -122.28800 1260 ft 131 kts 296°
2026-05-06 02:23 37.58639 -122.29812 1094 ft 127 kts 296°
2026-05-06 02:23 37.59056 -122.30804 934 ft 131 kts 296°
2026-05-06 02:23 37.59485 -122.31831 792 ft 134 kts 296°
2026-05-06 02:24 37.59924 -122.32876 622 ft 135 kts 297°
2026-05-06 02:24 37.60371 -122.33918 387 ft 134 kts 296°
2026-05-06 02:24 37.60793 -122.34935 228 ft 128 kts 296°
2026-05-06 02:24 37.61204 -122.35902 71 ft 122 kts 295°
2026-05-06 02:25 37.61573 -122.36795 23 ft 101 kts 298°
2026-05-06 02:25 37.61791 -122.37317 22 ft 52 kts 297°
2026-05-06 02:25 37.61936 -122.37657 23 ft 32 kts 298°
2026-05-06 02:25 37.61998 -122.37848 24 ft 19 kts 271°
2026-05-06 02:26 37.61957 -122.37976 22 ft 13 kts 265°
2026-05-06 02:26 37.61991 -122.38094 22 ft 16 kts 300°
2026-05-06 02:26 37.62047 -122.38227 23 ft 19 kts 295°
2026-05-06 02:26 37.62112 -122.38379 22 ft 21 kts 299°
2026-05-06 02:27 37.62187 -122.38549 25 ft 23 kts 299°
2026-05-06 02:27 37.62250 -122.38701 23 ft 13 kts 296°
2026-05-06 02:27 37.62297 -122.38818 23 ft 16 kts 297°
2026-05-06 02:27 37.62340 -122.38927 23 ft 13 kts 287°
2026-05-06 02:28 37.62323 -122.39048 22 ft 15 kts 253°
2026-05-06 02:28 37.62294 -122.39147 24 ft 8 kts 238°
2026-05-06 02:28 37.62241 -122.39202 22 ft 12 kts 209°
2026-05-06 02:28 37.62160 -122.39255 23 ft 15 kts 208°
2026-05-06 02:29 37.62077 -122.39311 24 ft 11 kts 207°
2026-05-06 02:29 37.62010 -122.39318 22 ft 10 kts 142°
2026-05-06 02:29 37.61971 -122.39235 23 ft 12 kts 118°
2026-05-06 02:29 37.61928 -122.39131 22 ft 15 kts 118°
2026-05-06 02:30 37.61881 -122.39021 25 ft 12 kts 118°
2026-05-06 02:30 37.61851 -122.38948 24 ft 7 kts 118°
2026-05-06 02:30 37.61820 -122.38913 22 ft 6 kts 160°
2026-05-06 02:30 37.61791 -122.38900 22 ft 5 kts 160°
2026-05-06 02:31 37.61770 -122.38890 22 ft 1 kts 158°
2026-05-06 02:31 37.61768 -122.38888 22 ft 0 kts 158°